Skip Page Navigation
NASA JPL Caltech
NASA Logo - Jet Propulsion Laboratory + View the NASA Portal
+ Center for Near-Earth Object Studies
JPL Home Earth Solar System Stars & Galaxies Technology
JPL Solar System Dynamics
BODIES ORBITS EPHEMERIDES TOOLS PHYSICAL DATA DISCOVERY FAQ SITE MAP
IMPORTANT: The SSD Announcement email list is now available. Major changes are coming in the near future, including possible hostname and/or URL changes. To be notified of such changes, subscribe to this email list.

Please visit this page for more details.


JPL Small-Body Database Browser
Search: [ help ]  
183649 (2003 WX67)
Classification: Main-belt Asteroid          SPK-ID: 2183649
Ephemeris | Orbit Diagram | Orbital Elements | Mission Design | Physical Parameters | Discovery Circumstances | Close-Approach Data ]

[ show orbit diagram ]
Orbital Elements at Epoch 2458600.5 (2019-Apr-27.0) TDB
Reference: JPL 9 (heliocentric ecliptic J2000)
 Element Value Uncertainty (1-sigma)   Units 
e .2171410184287477 1.0788e-07  
a 2.473989863340513 2.4657e-08 au
q 1.936785184832356 2.7774e-07 au
i 2.376463550173384 6.9787e-06 deg
node 260.3845489277538 0.00021286 deg
peri 74.20706723885347 0.00021344 deg
M 52.78459249020642 1.3588e-05 deg
tp 2458392.098916323219
(2018-Sep-30.59891632)
5.3959e-05 TDB
period 1421.331236715732
3.89
2.1248e-05
5.817e-08
d
yr
n .2532836756841082 3.7865e-09 deg/d
Q 3.01119454184867 3.0011e-08 au
  Orbit Determination Parameters
   # obs. used (total)      212  
   data-arc span      6965 days (19.07 yr)  
   first obs. used      1999-10-12  
   last obs. used      2018-11-06  
   planetary ephem.      DE431  
   SB-pert. ephem.      SB431-N16  
   condition code      0  
   norm. resid. RMS      .64121  
   source      ORB  
   producer      Otto Matic  
   solution date      2019-Jul-13 18:03:15  

Additional Information
 Earth MOID = .927591 au 
 Jupiter MOID = 2.37091 au 
 T_jup = 3.448 
[ show covariance matrix ]

Ephemeris | Orbit Diagram | Orbital Elements | Mission Design | Physical Parameters | Discovery Circumstances | Close-Approach Data ]

Physical Parameter Table
Parameter Symbol Value Units Sigma Reference Notes
absolute magnitude H 16.7   n/a MPO454264  

183649 (2003 WX67)          Discovered 2003-Nov-19 by Spacewatch at Kitt Peak
Reference: 20080420/Numbers.arcLast Updated: 2008-04-23

[ show close-approach data ]
Ephemeris | Orbit Diagram | Orbital Elements | Mission Design | Physical Parameters | Discovery Circumstances | Close-Approach Data ]
ABOUT SSD CREDITS/AWARDS PRIVACY/COPYRIGHT GLOSSARY LINKS
FirstGov
(server date/time)  
NASA Home Page
Site Manager:   Ryan S. Park
Webmaster  Alan B. Chamberlin